Weather History for KSYF - April, 2013

Change the Weather History Date:

Monday, April 29, 2013

  Actual Average Record
Temperature  
Mean Temperature 66 °F -  
Max Temperature 86 °F 70 °F 86 °F (2013)
Min Temperature 47 °F 39 °F 34 °F (2015)
Cooling Degree Days 2    
Growing Degree Days 16 (Base 50)    
Moisture  
Dew Point 31 °F    
Average Humidity 32    
Maximum Humidity 65    
Minimum Humidity 8    
Precipitation  
Precipitation 0.00 in - - ()
Sea Level Pressure  
Sea Level Pressure 29.73 in    
Wind  
Wind Speed 7 mph (South)    
Max Wind Speed 18 mph    
Max Gust Speed 31 mph    
Visibility 10 miles    
Events      
Averages and records for this station are not official NWS values.
T = Trace of Precipitation, MM = Missing Value Source: NWS Daily Summary

Daily Weather History Graph

Daily Weather History Graph

Search for Another Location

Airport or City:

Trip Planner

Search our weather history database for the weather conditions in past years. The results will help you decide how hot, cold, wet, or windy it might be!

Date:

Astronomy

Apr. 29, 2013 Rise Set
Actual Time 6:49 AM CDT 8:39 PM CDT
Civil Twilight 6:20 AM CDT 9:08 PM CDT
Nautical Twilight 5:45 AM CDT 9:44 PM CDT
Astronomical Twilight 5:07 AM CDT 10:22 PM CDT
Moon 12:10 AM CDT (4/29) 10:13 AM CDT (4/29)
Length of Visible Light 14h 48m
Length of Day
13h 49m
Waning Gibbous, 80% of the Moon is Illuminated
Apr 29
Waning Gibbous
May 2
Last Quarter
May 9
New
May 17
First Quarter
May 24
Full

Hourly Weather History & Observations

Time (CDT) Temp. Dew Point Humidity Pressure Visibility Wind Dir Wind Speed Gust Speed Precip Events Conditions
12:15 AM 54.3 °F 32.7 °F 44% 29.88 in 10.0 mi NNW 6.9 mph - N/A   Clear
12:35 AM 53.1 °F 33.1 °F 47% 29.89 in 10.0 mi NNW 5.8 mph - N/A   Clear
12:55 AM 50.9 °F 33.6 °F 52% 29.89 in 10.0 mi Calm Calm - N/A   Clear
1:15 AM 52.2 °F 33.6 °F 49% 29.89 in 10.0 mi North 3.5 mph - N/A   Clear
1:35 AM 51.4 °F 34.7 °F 53% 29.88 in 10.0 mi North 3.5 mph - N/A   Clear
1:55 AM 52.3 °F 34.0 °F 50% 29.88 in 10.0 mi Calm Calm - N/A   Clear
2:15 AM 52.3 °F 33.8 °F 49% 29.88 in 10.0 mi Calm Calm - N/A   Clear
2:35 AM 51.3 °F 34.0 °F 52% 29.88 in 10.0 mi North 3.5 mph - N/A   Clear
2:55 AM 51.1 °F 34.2 °F 52% 29.88 in 10.0 mi Calm Calm - N/A   Clear
3:15 AM 49.5 °F 34.3 °F 56% 29.88 in 10.0 mi NNW 4.6 mph - N/A   Clear
3:35 AM 49.1 °F 34.7 °F 58% 29.88 in 10.0 mi North 3.5 mph - N/A   Clear
4:15 AM 50.7 °F 33.8 °F 52% 29.88 in 10.0 mi NNW 3.5 mph - N/A   Clear
4:35 AM 48.9 °F 33.8 °F 56% 29.88 in 10.0 mi North 4.6 mph - N/A   Clear
4:55 AM 48.7 °F 34.3 °F 58% 29.87 in 10.0 mi North 3.5 mph - N/A   Clear
5:15 AM 49.6 °F 34.9 °F 57% 29.88 in 10.0 mi NNW 5.8 mph - N/A   Clear
5:35 AM 50.4 °F 34.2 °F 54% 29.87 in 10.0 mi Calm Calm - N/A   Clear
5:55 AM 48.2 °F 34.5 °F 59% 29.87 in 10.0 mi North 3.5 mph - N/A   Clear
6:15 AM 48.2 °F 34.3 °F 59% 29.86 in 10.0 mi Calm Calm - N/A   Clear
6:35 AM 47.3 °F 34.7 °F 62% 29.86 in 10.0 mi Calm Calm - N/A   Clear
6:55 AM 47.8 °F 35.2 °F 62% 29.85 in 10.0 mi Calm Calm - N/A   Clear
7:15 AM 48.2 °F 36.7 °F 64% 29.85 in 10.0 mi Calm Calm - N/A   Clear
7:35 AM 49.3 °F 37.8 °F 65% 29.86 in 10.0 mi Calm Calm - N/A   Scattered Clouds
8:15 AM 50.4 °F 37.8 °F 62% 29.84 in 10.0 mi SSW 8.1 mph 11.5 mph N/A   Scattered Clouds
8:35 AM 52.9 °F 39.0 °F 59% 29.82 in 10.0 mi SE 3.5 mph - N/A   Clear
8:55 AM 57.0 °F 36.9 °F 47% 29.83 in 10.0 mi South 3.5 mph - N/A   Clear
9:15 AM 60.1 °F 36.7 °F 42% 29.83 in 10.0 mi SE 3.5 mph - N/A   Clear
9:35 AM 63.7 °F 35.2 °F 35% 29.81 in 10.0 mi ESE 11.5 mph - N/A   Clear
9:55 AM 65.5 °F 36.1 °F 34% 29.81 in 10.0 mi ESE 9.2 mph - N/A   Clear
10:15 AM 68.4 °F 34.9 °F 29% 29.81 in 10.0 mi ESE 9.2 mph - N/A   Clear
10:35 AM 70.0 °F 34.9 °F 28% 29.81 in 10.0 mi SE 10.4 mph - N/A   Clear
10:55 AM 72.0 °F 35.1 °F 26% 29.79 in 10.0 mi SE 11.5 mph - N/A   Clear
11:15 AM 72.1 °F 35.1 °F 26% 29.79 in 10.0 mi SE 12.7 mph - N/A   Clear
11:35 AM 74.1 °F 35.1 °F 24% 29.78 in 10.0 mi SE 10.4 mph 16.1 mph N/A   Clear
11:55 AM 75.6 °F 33.6 °F 22% 29.77 in 10.0 mi SSE 11.5 mph - N/A   Clear
12:15 PM 77.5 °F 34.0 °F 21% 29.77 in 10.0 mi SE 11.5 mph 18.4 mph N/A   Clear
12:35 PM 78.3 °F 32.7 °F 19% 29.76 in 10.0 mi SSE 11.5 mph 19.6 mph N/A   Clear
12:55 PM 79.0 °F 31.8 °F 18% 29.75 in 10.0 mi SE 10.4 mph 16.1 mph N/A   Clear
1:15 PM 80.4 °F 32.0 °F 17% 29.73 in 10.0 mi SSE 8.1 mph 16.1 mph N/A   Clear
1:35 PM 80.6 °F 30.4 °F 16% 29.72 in 10.0 mi SE 11.5 mph 17.3 mph N/A   Clear
1:55 PM 82.2 °F 29.3 °F 15% 29.71 in 10.0 mi SE 9.2 mph - N/A   Clear
2:15 PM 82.6 °F 26.4 °F 13% 29.70 in 10.0 mi SW 5.8 mph 16.1 mph N/A   Clear
2:35 PM 84.0 °F 25.0 °F 12% 29.68 in 10.0 mi South 10.4 mph 21.9 mph N/A   Clear
2:55 PM 84.6 °F 24.8 °F 11% 29.68 in 10.0 mi SW 10.4 mph 19.6 mph N/A   Clear
3:15 PM 84.7 °F 23.5 °F 11% 29.66 in 10.0 mi South 13.8 mph 31.1 mph N/A   Clear
3:35 PM 86.0 °F 21.4 °F 9% 29.66 in 10.0 mi SSW 12.7 mph 23.0 mph N/A   Clear
3:55 PM 86.2 °F 22.1 °F 10% 29.65 in 10.0 mi SW 18.4 mph 29.9 mph N/A   Scattered Clouds
4:15 PM 85.3 °F 19.9 °F 9% 29.63 in 10.0 mi SSW 9.2 mph 27.6 mph N/A   Scattered Clouds
4:35 PM 85.5 °F 21.4 °F 10% 29.63 in 10.0 mi WSW 8.1 mph - N/A   Clear
4:55 PM 85.5 °F 21.2 °F 9% 29.61 in 10.0 mi South 8.1 mph 16.1 mph N/A   Clear
5:15 PM 85.3 °F 22.1 °F 10% 29.61 in 10.0 mi SSW 15.0 mph - N/A   Clear
5:35 PM 84.4 °F 22.5 °F 10% 29.60 in 10.0 mi South 15.0 mph 20.7 mph N/A   Clear
5:55 PM 84.6 °F 23.7 °F 11% 29.59 in 10.0 mi SSW 15.0 mph 21.9 mph N/A   Clear
6:15 PM 85.6 °F 19.0 °F 9% 29.58 in 10.0 mi SSW 11.5 mph - N/A   Clear
6:35 PM 84.4 °F 17.2 °F 8% 29.57 in 10.0 mi WSW 13.8 mph - N/A   Clear
6:55 PM 83.3 °F 17.8 °F 9% 29.57 in 10.0 mi SSW 9.2 mph - N/A   Clear
7:15 PM 82.4 °F 20.7 °F 10% 29.57 in 10.0 mi South 8.1 mph - N/A   Clear
7:35 PM 81.0 °F 24.1 °F 12% 29.56 in 10.0 mi South 10.4 mph - N/A   Clear
7:55 PM 77.9 °F 25.9 °F 15% 29.55 in 10.0 mi South 10.4 mph - N/A   Clear
8:15 PM 77.0 °F 25.2 °F 15% 29.55 in 10.0 mi South 11.5 mph - N/A   Clear
8:35 PM 75.4 °F 25.5 °F 16% 29.55 in 10.0 mi South 12.7 mph - N/A   Clear
8:55 PM 71.2 °F 29.7 °F 21% 29.55 in 10.0 mi South 12.7 mph - N/A   Clear
9:15 PM 68.9 °F 29.7 °F 23% 29.55 in 10.0 mi South 13.8 mph - N/A   Clear
9:35 PM 69.3 °F 28.0 °F 21% 29.55 in 10.0 mi South 12.7 mph - N/A   Clear
9:55 PM 68.9 °F 28.6 °F 22% 29.55 in 10.0 mi SSE 15.0 mph - N/A   Clear
10:15 PM 69.3 °F 31.1 °F 24% 29.56 in 10.0 mi South 17.3 mph - N/A   Clear
10:35 PM 68.5 °F 32.2 °F 26% 29.56 in 10.0 mi South 17.3 mph - N/A   Clear
10:55 PM 68.4 °F 32.4 °F 26% 29.56 in 10.0 mi South 16.1 mph - N/A   Clear
11:15 PM 67.1 °F 32.9 °F 28% 29.56 in 10.0 mi South 13.8 mph - N/A   Clear
11:35 PM 63.1 °F 34.7 °F 35% 29.56 in 10.0 mi SSW 6.9 mph - N/A   Clear
11:55 PM 59.7 °F 34.3 °F 39% 29.56 in 10.0 mi WSW 8.1 mph - N/A   Clear